TimeEST,TemperatureF,Dew PointF,Humidity,Sea Level PressureIn,VisibilityMPH,Wind Direction,Wind SpeedMPH,Gust SpeedMPH,PrecipitationIn,Events,Conditions,WindDirDegrees,DateUTC
12:53 AM,61.0,53.1,75,29.91,10.0,South,6.9,-,N/A,,Mostly Cloudy,190,2014-02-21 05:53:00
1:53 AM,62.1,53.1,72,29.89,10.0,South,12.7,-,N/A,,Scattered Clouds,190,2014-02-21 06:53:00
2:53 AM,61.0,53.1,75,29.88,10.0,South,6.9,-,N/A,,Scattered Clouds,190,2014-02-21 07:53:00
3:53 AM,61.0,54.0,78,29.86,10.0,SSW,5.8,-,N/A,,Overcast,200,2014-02-21 08:53:00
4:04 AM,60.8,53.6,77,29.87,10.0,South,8.1,-,N/A,,Overcast,180,2014-02-21 09:04:00
4:53 AM,60.1,55.9,86,29.82,10.0,South,8.1,-,0.01,Rain,Light Rain,170,2014-02-21 09:53:00
5:14 AM,60.8,55.4,82,29.84,8.0,South,10.4,-,0.00,Rain,Light Rain,180,2014-02-21 10:14:00
5:24 AM,60.8,57.2,88,29.84,6.0,South,6.9,-,0.02,Rain-Thunderstorm,Rain,190,2014-02-21 10:24:00
5:40 AM,60.8,57.2,88,29.83,5.0,South,8.1,-,0.07,Rain-Thunderstorm,Light Thunderstorms and Rain,190,2014-02-21 10:40:00
5:53 AM,60.1,57.0,90,29.81,10.0,South,10.4,-,0.07,Rain-Thunderstorm,Light Rain,180,2014-02-21 10:53:00
6:04 AM,60.8,57.2,88,29.84,6.0,SSW,9.2,-,0.02,Rain-Thunderstorm,Heavy Rain,210,2014-02-21 11:04:00
6:26 AM,60.8,57.2,88,29.88,1.8,WSW,19.6,28.8,0.23,Rain-Thunderstorm,Heavy Thunderstorms and Rain,250,2014-02-21 11:26:00
6:37 AM,60.8,57.2,88,29.86,2.0,WSW,23.0,35.7,0.39,Rain-Thunderstorm,Heavy Thunderstorms and Rain,240,2014-02-21 11:37:00
6:46 AM,60.8,57.2,88,29.87,3.0,SW,15.0,35.7,0.43,Rain-Thunderstorm,Rain,220,2014-02-21 11:46:00
6:53 AM,61.0,57.9,90,29.85,6.0,SSW,15.0,27.6,0.45,Rain-Thunderstorm,Rain,200,2014-02-21 11:53:00
7:12 AM,60.8,57.2,88,29.87,5.0,SW,9.2,23.0,0.09,Rain,Heavy Rain,220,2014-02-21 12:12:00
7:43 AM,60.8,57.2,88,29.87,5.0,South,13.8,19.6,0.19,Rain,Heavy Rain,190,2014-02-21 12:43:00
7:53 AM,60.1,57.9,93,29.87,6.0,SSW,6.9,-,0.22,Rain,Heavy Rain,210,2014-02-21 12:53:00
8:02 AM,60.8,57.2,88,29.88,7.0,SSW,11.5,18.4,0.01,Rain,Light Rain,200,2014-02-21 13:02:00
8:06 AM,60.8,57.2,88,29.87,9.0,South,11.5,18.4,0.01,Rain,Light Rain,180,2014-02-21 13:06:00
8:11 AM,60.8,57.2,88,29.88,8.0,SSW,10.4,-,0.02,Rain,Light Rain,210,2014-02-21 13:11:00
8:53 AM,60.1,57.9,93,29.86,10.0,SSW,12.7,19.6,0.03,,Overcast,210,2014-02-21 13:53:00
9:28 AM,60.8,57.2,88,29.88,10.0,SW,12.7,19.6,0.00,,Overcast,230,2014-02-21 14:28:00
9:53 AM,61.0,55.9,83,29.87,10.0,SW,12.7,-,0.00,,Overcast,230,2014-02-21 14:53:00
10:53 AM,59.0,51.1,75,29.88,10.0,WSW,10.4,-,N/A,,Overcast,250,2014-02-21 15:53:00
11:53 AM,60.1,51.1,72,29.88,10.0,WSW,11.5,-,N/A,,Partly Cloudy,250,2014-02-21 16:53:00
12:53 PM,62.1,37.0,39,29.88,10.0,WNW,10.4,-,N/A,,Clear,290,2014-02-21 17:53:00
1:53 PM,63.0,33.1,33,29.88,10.0,WSW,12.7,-,N/A,,Clear,250,2014-02-21 18:53:00
2:53 PM,63.0,24.1,23,29.90,10.0,West,12.7,21.9,N/A,,Clear,270,2014-02-21 19:53:00
3:53 PM,64.0,23.0,21,29.90,10.0,WSW,10.4,20.7,N/A,,Clear,250,2014-02-21 20:53:00
4:53 PM,64.9,6.1,10,29.92,10.0,West,15.0,20.7,N/A,,Clear,280,2014-02-21 21:53:00
5:53 PM,61.0,10.9,14,29.95,10.0,West,12.7,-,N/A,,Clear,260,2014-02-21 22:53:00
6:53 PM,59.0,8.1,13,29.98,10.0,West,5.8,-,N/A,,Clear,280,2014-02-21 23:53:00
7:53 PM,55.9,17.1,22,30.00,10.0,WNW,6.9,-,N/A,,Clear,300,2014-02-22 00:53:00
8:53 PM,54.0,15.1,22,30.00,10.0,NNW,5.8,-,N/A,,Clear,330,2014-02-22 01:53:00
9:53 PM,52.0,12.0,20,30.00,10.0,NW,4.6,-,N/A,,Clear,320,2014-02-22 02:53:00
10:53 PM,45.0,19.9,37,30.03,10.0,SSE,5.8,-,N/A,,Clear,150,2014-02-22 03:53:00
11:53 PM,46.0,18.0,33,30.05,10.0,Calm,Calm,-,N/A,,Clear,0,2014-02-22 04:53:00